AirNav   Duncan Aviation - Near you to keep you flying
 
 1465 users online  

KEMT San Gabriel Valley Airport
El Monte, California, USA

GOING TO EL MONTE?


FAA INFORMATION EFFECTIVE 09 SEPTEMBER 2021

Location

FAA Identifier: EMT
Lat/Long: 34-05-09.6320N 118-02-05.4430W
34-05.160533N 118-02.090717W
34.0860089,-118.0348453
(estimated)
Elevation: 295.6 ft. / 90.1 m (surveyed)
Variation: 14E (1985)
From city: 1 mile N of EL MONTE, CA
Time zone: UTC -7 (UTC -8 during Standard Time)
Zip code: 91731

Airport Operations

Airport use: Open to the public
Activation date: 04/1944
Control tower: yes
ARTCC: LOS ANGELES CENTER
FSS: RIVERSIDE FLIGHT SERVICE STATION
NOTAMs facility: EMT (NOTAM-D service available)
Attendance: CONTINUOUS
Wind indicator: lighted
Segmented circle: yes
Lights: WHEN ATCT CLSD ACTVT MIRL RY 01/19, REIL RY 19, PAPI RYS 01 AND 19 - CTAF.
Beacon: white-green (lighted land airport)
Operates sunset to sunrise.
Taxiway lights: CNTR TWY LGTS ONLY.

Airport Communications

CTAF: 121.2
UNICOM: 122.95
ATIS: 118.75
WX AWOS-3PT: 118.75 ((626) 444-1107)
EL MONTE GROUND: 125.9 [0800-2000]
EL MONTE TOWER: 121.2 [0800-2000]
SOCAL APPROACH: 125.5
SOCAL DEPARTURE: 125.5
WX AWOS-3PT at POC (13 nm E): 124.4 (909-596-1523)
WX ASOS at FUL (13 nm S): PHONE 714-870-1372
WX AWOS-3PT at CPM (16 nm SW): 127.150 (310-631-4958)
WX ASOS at LGB (17 nm S): PHONE 562-424-0572
WX AWOS-3P at CCB (17 nm E): 119.525 (909-985-4731)
WX ASOS at BUR (17 nm NW): PHONE 818-841-1384
WX ASOS at HHR (18 nm SW): PHONE 310-973-8930
  • DRG HRS EL MONTE TWR IS OPNL SOCAL APP PRVDS DEP CTL SVC ON 125.5; OTR HRS DEP CTL ON 121.2.

Nearby radio navigation aids

VOR radial/distance  VOR name  Freq  Var
POMr257/12.3POMONA VORTAC110.4015E
SLIr348/18.2SEAL BEACH VORTAC115.7015E
SMOr063/21.5SANTA MONICA VOR/DME110.8015E
LAXr050/21.8LOS ANGELES VORTAC113.6015E
VNYr095/24.1VAN NUYS VOR/DME113.1015E
PDZr277/27.1PARADISE VORTAC112.2015E
ELBr314/28.9EL TORO VOR/DME117.2014E
RALr271/(30.1)RIVERSIDE VOR112.4014E
PMDr162/32.8PALMDALE VORTAC114.5015E

Airport Services

Fuel available: 100LL JET-A
Parking: tiedowns
Airframe service: MAJOR
Powerplant service: MAJOR
Bulk oxygen: NONE

Runway Information

Runway 1/19

Dimensions: 3995 x 75 ft. / 1218 x 23 m
Surface: asphalt/aggregate friction seal coat, in good condition
Weight bearing capacity: 
Single wheel: 12.5
Runway edge lights: medium intensity
RUNWAY 1  RUNWAY 19
Latitude: 34-04.862517N34-05.457367N
Longitude: 118-02.260400W118-01.920483W
Elevation: 281.8 ft.295.6 ft.
Traffic pattern: leftright
Runway heading: 011 magnetic, 025 true191 magnetic, 205 true
Displaced threshold: 290 ft.641 ft.
Declared distances: TORA:3504 TODA:3995 ASDA:3755 LDA:3465TORA:3995 TODA:3995 ASDA:3995 LDA:3354
Markings: basic, in good conditionbasic, in good condition
Visual slope indicator: 2-light PAPI on left (4.57 degrees glide path)2-light PAPI on right (4.50 degrees glide path)
Runway end identifier lights: noyes
Touchdown point: yes, no lightsyes, no lights
Obstructions: 18 ft. pole, 350 ft. from runway, 85 ft. right of centerline, 8:1 slope to clear
RWY 01 +6 FT FENCE 120 FT R OF CNTRLN; +6 FT FENCE 120 FT LEFT & PARALLEL TO CNTRLN 0-200 FT FM END OF RY.
30 ft. pole, 800 ft. from runway, 205 ft. left of centerline, 20:1 slope to clear
+2 FT FENCE 75 FT RIGHT OF CNTRLN AT THR TO 0 FT RIGHT OF CNTRLN AT 200 FT.

Airport Ownership and Management from official FAA records

Ownership: Publicly-owned
Owner: CO OF LOS ANGELES
P O BOX 1460
ALHAMBRA, CA 91803-1331
Phone (626) 300-4602
LA COUNTY CTC: RICHARD SMITH (626) 300-4600 X4615. AIRPORT MGT CONTRACTED TO - AMERICAN AIRPORTS CORP.
Manager: ENRIQUE CURIOSO
4233 NORTH SANTA ANITA AVE
EL MONTE, CA 91731
Phone 626-448-6129

Airport Operational Statistics

Aircraft based on the field: 104
Single engine airplanes: 96
Multi engine airplanes: 3
Helicopters: 5
    
Aircraft operations: avg 245/day *
58% local general aviation
42% transient general aviation
<1% air taxi
<1% military
* for 12-month period ending 31 December 2018

Additional Remarks

REMAIN OVER PAVED CHANNEL ON CLIMB OUT TO SOUTH AND TO NORTH.
HEAVY BIRD ACTIVITY ON & INVOF ARPT.
LGTD WATER TWR 1 MI W-SW OF ARPT.
NOISE ABATEMENT PROCEDURES IN EFFECT, CTC ARPT MANAGER FOR DETAILS.
FOR CLNC DEL WHEN ATCT CLSD CALL SOCAL APP (800) 448-3724.

Instrument Procedures

NOTE: All procedures below are presented as PDF files. If you need a reader for these files, you should download the free Adobe Reader.

NOT FOR NAVIGATION. Please procure official charts for flight.
FAA instrument procedures published for use from 09 September 2021 at 0901Z to 07 October 2021 at 0900Z.

 
STARs - Standard Terminal Arrivals
SETER FIVE   download (282KB)
ZIGGY SEVEN   2 pages: [1] [2] (459KB)
 
IAPs - Instrument Approach Procedures
RNAV (GPS)-B   download (208KB)
VOR-A   download (317KB)
NOTE: Special Alternate Minimums apply   download (101KB)
NOTE: Special Take-Off Minimums/Departure Procedures apply   download (236KB)

Other nearby airports with instrument procedures:

KPOC - Brackett Field Airport (13 nm E)
KFUL - Fullerton Municipal Airport (13 nm S)
KLGB - Long Beach Airport (Daugherty Field) (17 nm S)
KCCB - Cable Airport (17 nm E)
KBUR - Bob Hope Airport (17 nm NW)
KSLI - Los Alamitos Army Airfield (18 nm S)
KHHR - Jack Northrop Field/Hawthorne Municipal Airport (18 nm SW)
 
Loc | Ops | Rwys | IFR | FBO | Links
Com | Nav | Svcs | Stats | Notes

San Bernardino International Airport Authority
 
Area around KEMT (San Gabriel Valley Airport)
 
Road maps at: MapQuest Bing Google
 
Aerial photo
WARNING: Photo may not be current or correct
Aerial photo of KEMT (San Gabriel Valley Airport)
Photo by Mark Holtzman
West Coast Aerial Photography
Photo taken 01-May-2019
looking northwest.

Do you have a better or more recent aerial photo of San Gabriel Valley Airport that you would like to share? If so, please send us your photo.

 
Sectional chart

 
Airport diagram
CAUTION: Diagram may not be current
Diagram of KEMT (San Gabriel Valley Airport)
Download PDF
of official airport diagram from the FAA

 
Airport distance calculator
Flying to San Gabriel Valley Airport? Find the distance to fly.

From to KEMT

Sunrise and sunset
Times for 24-Sep-2021
 Local
(UTC-7)
 Zulu
(UTC)
Morning civil twilight06:1813:18
Sunrise06:4313:43
Sunset18:4601:46
Evening civil twilight19:1102:11

Current date and time
Zulu (UTC)  24-Sep-2021 19:54:44
Local (UTC-7)  24-Sep-2021 12:54:44
 
METAR
KEMT 241847Z 20004KT 8SM CLR 26/14 A2994 RMK FUEL PIT OTS
KCQT 
10nm W 
241852Z AUTO 00000KT 7SM CLR 24/14 A2993 RMK AO2 SLP132 T02390139
KPOC 
13nm E 
241847Z 26006KT 10SM CLR 26/14 A2996
KFUL 
13nm S 
241853Z VRB03KT 6SM HZ CLR 24/15 A2993 RMK AO2 SLP135 T02390150
KLGB 
17nm S 
241853Z 18008KT 6SM HZ CLR 22/15 A2995 RMK AO2 SLP141 T02170150
KCCB 
17nm E 
119.525 909-985-4731
241935Z AUTO VRB05G10KT 10SM CLR 28/09 A2996 RMK AO2
KBUR 
18nm NW 
241853Z 12006KT 10SM CLR 26/13 A2994 RMK AO2 SLP124 T02610128 $
KHHR 
18nm SW 
241853Z 28006KT 10SM CLR 21/14 A2995 RMK AO2 SLP141 T02110144
KSLI 
19nm S 
241858Z 21007KT 8SM FEW100 23/17 A2995 RMK AO2A SLP145 T02280166
KLAX 
20nm SW 
241853Z 25008KT 8SM SCT010 SCT150 20/14 A2996 RMK AO2 SLP142 FU SCT150 T02000139 $
TAF
KLGB 
17nm S 
241740Z 2418/2518 VRB03KT 3SM HZ FEW010 FM242000 19008KT P6SM SKC FM250000 29009KT P6SM SKC FM250500 VRB03KT P6SM SKC FM250900 VRB03KT 4SM BR OVC007 FM251500 VRB03KT 4SM HZ OVC012 FM251700 VRB03KT 5SM HZ SCT015
KBUR 
18nm NW 
241740Z 2418/2518 VRB03KT P6SM SKC FM242000 18009KT P6SM SKC FM250300 14004KT P6SM SKC FM251100 VRB03KT 6SM HZ SCT008 FM251700 VRB03KT P6SM SCT012
KSLI 
19nm S 
241527Z 2415/2519 VRB06KT 9999 BKN010 QNH2987INS TEMPO 2415/2416 6000 BR BKN007 BECMG 2416/2417 30009KT 9999 SCT015 QNH2990INS BECMG 2505/2506 VRB05KT 9999 BKN010 QNH2987INS TX24/2423Z TN15/2513Z
KLAX 
20nm SW 
241740Z 2418/2524 VRB03KT 4SM HZ SCT011 BKN140 FM242000 26012KT P6SM SKC FM250300 26007KT P6SM BKN010 FM250700 VRB03KT 4SM BR OVC007 FM251600 VRB03KT 4SM HZ OVC012 FM251800 26007KT P6SM OVC015 FM252100 26012KT P6SM SCT018
KSMO 
21nm W 
241740Z 2418/2518 23008KT P6SM SKC FM250300 23005KT P6SM BKN010 FM250500 VRB03KT P6SM OVC007 FM251630 VRB03KT P6SM SCT012
NOTAMs
Click for the latest NOTAMs
NOTAMs are issued by the DoD/FAA and will open in a separate window not controlled by AirNav.

 

 
 

FBO, Fuel Providers, and Aircraft Ground Support

  
 Business Name 
 
 Contact 
 
 Services / Description 
 
Fuel Prices
 
Comments
  
 Billion Air Aviation, Inc.
626-208-3708
toll-free 888-818-8177
[web site]
[email]
Aviation fuel, Aircraft ground handling, Aircraft parking (ramp or tiedown), Hangars, Hangar leasing / sales, Passenger terminal and lounge, ...
 
EPIC Card   Enterprise Rent-A-Car   Hertz  
 
More info about Billion Air Aviation, Inc.
EPIC
100LL Jet A
FS $4.95 $3.95 
 Updated 22-Sep-2021
 
   3 read write
FS=Full service
Update Fuel Prices
 

Would you like to see your business listed on this page?

 If your business provides an interesting product or service to pilots, flight crews, aircraft, or users of the San Gabriel Valley Airport, you should consider listing it here.  To start the listing process, click on the button below
 
Add a business
 

Other Pages about San Gabriel Valley Airport

aacit.caltech.edu/...
 
Update a link
 
Copyright © AirNav, LLC. All rights reserved. Privacy Policy  Contact